Weather History for Armstrong, ON

Change the Weather History Date:

Sunday, August 18, 2013

  Actual Average Record
Temperature  
Mean Temperature 72 °F -  
Max Temperature 82 °F - - ()
Min Temperature 61 °F - - ()
Cooling Degree Days 6    
Growing Degree Days 22 (Base 50)    
Moisture  
Dew Point 60 °F    
Average Humidity 68    
Maximum Humidity 86    
Minimum Humidity 44    
Precipitation  
Precipitation 0.00 in - - ()
Sea Level Pressure  
Sea Level Pressure 29.90 in    
Wind  
Wind Speed 3 mph ()    
Max Wind Speed 8 mph    
Max Gust Speed -    
T = Trace of Precipitation, MM = Missing Value Source: Averaged Metar Reports

Daily Weather History Graph

Daily Weather History Graph

Search for Another Location

Airport:

Trip Planner

Search our weather history database for the weather conditions in past years. The results will help you decide how hot, cold, wet, or windy it might be!

Date:

Astronomy

Aug. 18, 2013 Rise Set
Actual Time 6:49 AM EDT 9:08 PM EDT
Civil Twilight 6:13 AM EDT 9:43 PM EDT
Nautical Twilight 5:28 AM EDT 10:28 PM EDT
Astronomical Twilight 4:36 AM EDT 11:20 PM EDT
Moon 7:19 PM EDT (8/18) 3:49 AM EDT (8/18)
Length of Visible Light 15h 30m
Length of Day
14h 18m
Waxing Gibbous, 92% of the Moon is Illuminated
Aug 18
Waxing Gibbous
Aug 20
Full
Aug 28
Last Quarter
Sep 5
New
Sep 12
First Quarter

Hourly Weather History & Observations

Time (EDT) Temp. Heat Index Dew Point Humidity Pressure Visibility Wind Dir Wind Speed Gust Speed Precip Events Conditions
12:00 AM 68.7 °F - 57.7 °F 68% 29.92 in - SSE 2.3 mph - N/A   Unknown
1:00 AM 67.3 °F - 57.7 °F 71% 29.93 in - SSE 2.3 mph - N/A   Unknown
2:00 AM 65 °F - 58 °F 71% 29.94 in - South 3.5 mph - -  
2:00 AM 65.5 °F - 57.7 °F 76% 29.94 in - South 3.5 mph - N/A   Unknown
3:00 AM 64.0 °F - 57.4 °F 79% 29.94 in - SSE 3.5 mph - N/A   Unknown
4:00 AM 64.8 °F - 57.7 °F 78% 29.94 in - South 3.5 mph - N/A   Unknown
5:00 AM 64 °F - 57 °F 73% 29.92 in - SSE 3.5 mph - -  
5:00 AM 63.5 °F - 57.6 °F 81% 29.92 in - SSE 3.5 mph - N/A   Unknown
6:00 AM 62.2 °F - 57.2 °F 84% 29.91 in - SSE 2.3 mph - N/A   Unknown
7:00 AM 62.2 °F - 56.8 °F 82% 29.91 in - SSE 2.3 mph - N/A   Unknown
8:00 AM 63 °F - 58 °F 80% 29.92 in - ESE 1.2 mph - -  
8:00 AM 62.8 °F - 58.5 °F 86% 29.92 in - ESE 1.2 mph - N/A   Unknown
9:00 AM 67.1 °F - 59.4 °F 76% 29.94 in - South 2.3 mph - N/A   Unknown
10:00 AM 70.5 °F - 60.4 °F 70% 29.93 in - SW 6.9 mph - N/A   Unknown
11:00 AM 70 °F - 60 °F 64% 29.93 in - SW 4.6 mph - -  
11:00 AM 69.8 °F - 60.6 °F 73% 29.93 in - SW 4.6 mph - N/A   Unknown
12:00 PM 70.7 °F - 61.5 °F 73% 29.94 in - SSW 4.6 mph - N/A   Unknown
1:00 PM 76.6 °F - 63.1 °F 63% 29.91 in - SW 6.9 mph - N/A   Unknown
2:00 PM 78 °F - 64 °F 54% 29.90 in - SW 8.1 mph - -  
2:00 PM 78.4 °F - 64.4 °F 62% 29.90 in - WSW 6.9 mph - N/A   Unknown
3:00 PM 80.1 °F 81.8 °F 64.8 °F 59% 29.90 in - SW 6.9 mph - N/A   Unknown
4:00 PM 78.3 °F - 64.6 °F 63% 29.90 in - SW 4.6 mph - N/A   Unknown
5:00 PM 80 °F - 65 °F 51% 29.88 in - SSW 4.6 mph - -  
5:00 PM 80.4 °F 82.3 °F 65.3 °F 60% 29.88 in - SSW 5.8 mph - N/A   Unknown
6:00 PM 79.5 °F - 65.7 °F 62% 29.87 in - SSW 1.2 mph - N/A   Unknown
7:00 PM 79.3 °F - 63.3 °F 58% 29.87 in - SSW 4.6 mph - N/A   Unknown
8:00 PM 77 °F - 59 °F 44% 29.85 in - SW 4.6 mph - -  
8:00 PM 77.4 °F - 59.2 °F 53% 29.85 in - SW 5.8 mph - N/A   Unknown
9:00 PM 73.2 °F - 60.6 °F 65% 29.85 in - South 3.5 mph - N/A   Unknown
10:00 PM 70.9 °F - 60.8 °F 70% 29.86 in - South 2.3 mph - N/A   Unknown
11:00 PM 71 °F - 61 °F 64% 29.86 in - SW 4.6 mph - -  
11:00 PM 71.4 °F - 61.5 °F 71% 29.86 in - SW 5.8 mph - N/A   Unknown